Regional Weather Roundup
Issued by NWS

Home | Current Version | Previous Version | Text Only | Print | Product List | Glossary On
Versions: 1 2 3 4 5 6 7 8 9 10 11 12 13 14 15 16 17 18 19 20 21 22 23 24 25 26 27 28 29 30 31 32 33 34 35 36 37 38 39 40 41 42 43 44 45 46 47 48 49 50
000
ASUS45 KTFX 241119
RWRMT
MONTANA HOURLY WEATHER ROUNDUP
NATIONAL WEATHER SERVICE GREAT FALLS MT
519 AM MDT THU JUL 24 2014

NOTE: "FAIR" INDICATES FEW OR NO CLOUDS BELOW 12000 FEET WITH NO
SIGNIFICANT WEATHER AND/OR OBSTRUCTIONS TO VISIBILITY.

* THESE STATIONS ARE NOT UNDER NWS QUALITY CONTROL. THEY DO NOT
   REPORT WEATHER SUCH AS PRECIPITATION OR FOG.

MTZ001>007-043-241200-
WEST OF THE DIVIDE
CITY           SKY/WX    TMP DP  RH WIND       PRES   REMARKS
KALISPELL      RAIN      59  52  78 S3        30.00R
MISSOULA       PTCLDY    61  43  52 NW10      30.04S
BUTTE          CLEAR     48  43  83 SE8       30.05R
MULLAN PASS    CLOUDY    41  37  86 CALM      30.12R
* ESSEX        N/A       62  51  67 NW1G6      N/A
* LINCOLN      N/A       54  51  90 S5         N/A
* LOOKOUT PASS N/A       49  44  83 N6G11      N/A
* POLSON       N/A       59  43  56 N/A        N/A
* RONAN APT    MOCLDY    61  48  62 N/A        N/A
* SEELEY LAKE  N/A       60  50  70 W3         N/A
* THOMP F APT  MOCLDY    64  34  33 N2         N/A
$$

MTZ008-052>055-241200-
SOUTHWEST MONTANA
CITY           SKY/WX    TMP DP  RH WIND       PRES   REMARKS
BOZEMAN        PTCLDY    57  45  64 SE6       29.93S
DILLON         PTCLDY    54  36  51 CALM      29.97S
W YELLOWSTONE  PTCLDY    41  39  93 N3        30.14R
* THREE FORKS  PTCLDY    55  55 100 N/A        N/A
* BOULDER HILL N/A       55  43  64 N/A        N/A
* MONIDA PASS  N/A       61  31  32 SE7        N/A
* RAYNOLDS PAS N/A       59  40  50 S14G20     N/A
* WHITEHALL    N/A       53  48  83 S3G8       N/A
* WISE RIVER   N/A       47  43  86 W3         N/A
$$

MTZ009>010-012-014-046-048-049-054-241200-
EAST SLOPES AND CENTRAL MONTANA
CITY           SKY/WX    TMP DP  RH WIND       PRES   REMARKS
CUT BANK       CLEAR     57  52  83 W6        29.93S
GREAT FALLS    CLEAR     59  54  84 N8        29.89R
HELENA         CLEAR     64  48  56 W9        29.93R
MALMSTROM AFB  CLEAR     63  54  73 NW12      29.90R
* CONRAD       CLEAR     57  57 100 N/A        N/A
* DEARBORN     N/A       59  54  84 S3G10      N/A
* EAST GLACIER N/A       58  47  67 W12        N/A
* MONARCH      N/A       54  49  83 SW4        N/A
* SAINT MARY   N/A       60  46  60 SW8G18     N/A
* SWEET GRASS  N/A       59  57  93 NW6        N/A
* WHITE SULPH  N/A       53  50  90 S2         N/A
$$

MTZ011-013-016-021-035-040-045-047-050-051-241200-
NORTH CENTRAL MONTANA
CITY           SKY/WX    TMP DP  RH WIND       PRES   REMARKS
HAVRE          PTCLDY    64  61  90 E12       29.81R
LEWISTOWN      CLEAR     57  50  78 SE6       29.91R
* FORT BENTON  CLEAR     63  55  75 W9        29.86R
* CHESTER      N/A       60  55  84 NE3        N/A
* DENTON       N/A       56  54  93 E6         N/A
* GEYSER       N/A       60  49  67 W11        N/A
* JUDITH GAP   N/A       61  47  60 N4         N/A
* LOMA         N/A       62  57  84 SW1        N/A
$$

MTZ017>020-022>027-061-062-241200-
NORTHEAST MONTANA
CITY           SKY/WX    TMP DP  RH WIND       PRES   REMARKS
GLASGOW        PTCLDY    66  63  90 E18       29.80F
GLENDIVE       MOCLDY    66  55  68 NE13      29.84F
JORDAN         CLEAR     70  64  81 NE8       29.82R
SIDNEY         TSTM      64  61  90 SE9       29.87F
WOLF POINT     MOCLDY    64  61  90 E18G28    29.85S
* BEAVER HILL  N/A       64  57  78 SE21G29    N/A
* CIRCLE       N/A       67  61  81 N7G13      N/A
* LINDSAY DVD  N/A       67  57  70 E12G20     N/A
* NAVAJO       N/A       64  59  84 N27G38     N/A
$$

MTZ028>042-056>058-241200-
SOUTHCENTRAL AND SOUTHEAST MONTANA
CITY           SKY/WX    TMP DP  RH WIND       PRES   REMARKS
BAKER          PTCLDY    63  55  75 E14       29.81F
BILLINGS       PTCLDY    70  61  73 SW12      29.82S
LIVINGSTON     PTCLDY    61  43  52 NW14      29.94R
MILES CITY     CLEAR     66  61  84 N12       29.76S
* LAUREL APT   CLEAR     64  55  73 N/A        N/A
* ROUNDUP APT  CLEAR     68  52  57 N/A        N/A
* ALZADA       N/A       65  62  90 E12        N/A
* HYSHAM       N/A       68  55  63 SE1        N/A
* LAME DEER    N/A       73  56  55 S12G20     N/A
* REED POINT   N/A       61  51  70 SW5        N/A
* ROSCOE HILL  N/A       73  35  25 S9         N/A
$$

REGIONAL REPORTS...DAKOTAS
CITY           SKY/WX    TMP DP  RH WIND       PRES   REMARKS
WILLISTON      TSTM      64  61  90 E15       29.94R VSB 3
DICKINSON      LGT RAIN  63  55  75 SE21G28   29.84F
CROSBY         TSTM      64  64 100 W13G30    30.02R
TIOGA          TSTM      64  64 100 S13G23    29.95R
WATFORD CITY   LGT RAIN  66  59  78 W17G41    30.02R VSB 3
BISMARCK       PTCLDY    64  55  73 SE9       29.96F
GRAND FORKS    CLOUDY    59  55  87 S6        30.10S
FARGO          MOCLDY    63  57  81 SE5       30.10F
BUFFALO SD     PTCLDY    70  55  59 S6        29.76R
RAPID CITY     PTCLDY    64  63  97 SE9       29.89F
$$

REGIONAL REPORTS...WYOMING/IDAHO/WASHINGTON
CITY           SKY/WX    TMP DP  RH WIND       PRES   REMARKS
GILLETTE       MOCLDY    75  52  45 S17       29.91S
SHERIDAN       MOCLDY    72  48  43 W9        29.84F
YELLOWSTONE LA CLEAR     43  37  79 NW3       30.26R
SALMON         CLEAR     52  45  77 CALM      29.97R
MULLAN PASS    CLOUDY    41  37  86 CALM      30.12S
SAND POINT     CLOUDY    54  46  74 SW5       30.07R
SPOKANE        FAIR      52  45  77 S12       30.07R
$$

REGIONAL REPORTS...ALBERTA
CITY           SKY/WX    TMP DP  RH WIND       PRES   REMARKS
CALGARY        MOCLDY    54  50  86 S10G17    29.82S
LETHBRIDGE     PTCLDY    55  54  96 S7        29.89R
MEDICINE HAT   MOCLDY    63  61  93 VRB2      29.85S
EDMONTON       MOCLDY    59  57  93 SE8       29.70R
WATERTON GATE  N/A       59  39  48 SW13G22    N/A
CARDSTON       N/A       61  48  62 W8         N/A
MILK RIVER     N/A       57  54  90 NW1        N/A
$$

REGIONAL REPORTS...SASKATCHEWAN
CITY           SKY/WX    TMP DP  RH WIND       PRES   REMARKS
SWIFT CURRENT  CLOUDY    66  59  78 NW8G23    29.80R
MOOSE JAW      TSTM      66  64  93 SE12      29.88F
REGINA         MOCLDY    63  61  93 SE7       29.93R
VAL MARIE      N/A       61  57  87 SE7        N/A
ASSINIBOIA     N/A       66  61  84 E25G37     N/A
CORONACH       N/A       66  59  78 NE18G25    N/A

$$



USA.gov is the U.S. government's official web portal to all federal, state and local government web resources and services.